Regional Weather Roundup
Issued by NWS

Home | Current Version | Previous Version | Graphics & Text | Print | Product List | Glossary On
Versions: 1 2 3 4 5 6 7 8 9 10 11 12 13 14 15 16 17 18 19 20 21 22 23 24 25 26 27 28 29 30 31 32 33 34 35 36 37 38 39 40 41 42 43 44 45 46 47 48 49 50
000
ASUS43 KLMK 190302
RWRKY
KENTUCKY REGIONAL WEATHER ROUNDUP
NATIONAL WEATHER SERVICE LOUISVILLE KY
1000 PM EST WED JAN 18 2017

NOTE "FAIR" INDICATES FEW OR NO CLOUDS BELOW 12,000 FEET
WITH NO SIGNIFICANT WEATHER AND/OR OBSTRUCTIONS TO VISIBILITY.

KYZ001>023-026-027-061>063-070>075-190400-
WESTERN AND SOUTH CENTRAL KENTUCKY

CITY           SKY/WX    TMP DP  RH WIND       PRES   REMARKS
PADUCAH        CLOUDY    45  40  82 CALM      30.11S
HENDERSON      CLOUDY    39  34  81 CALM      30.13R
OWENSBORO      MOCLDY    41  36  82 E6        30.13F
HOPKINSVILLE   PTCLDY    44  41  88 E5        30.10F
BOWLING GREEN  CLOUDY    44  38  79 CALM      30.13F
GLASGOW        NOT AVBL
$$

KYZ024-025-028>034-038-045-046-053-190400-
NORTH CENTRAL KENTUCKY

CITY           SKY/WX    TMP DP  RH WIND       PRES   REMARKS
LOUISVILLE/SDF CLOUDY    42  35  76 E3        30.14F
LOUISVILLE/LOU MOCLDY    39  35  86 CALM      30.15F
FORT KNOX      CLOUDY    39  36  87 CALM      30.12S
$$

KYZ035>037-039>044-047>052-055>060-089>105-190400-
NORTHEAST KENTUCKY

CITY           SKY/WX    TMP DP  RH WIND       PRES   REMARKS
LEXINGTON      PTCLDY    37  34  89 NE5       30.14F WCI  33
COVINGTON      CLOUDY    39  36  89 SW3       30.13F
FRANKFORT      PTCLDY    35  32  88 CALM      30.13F
$$

KYZ054-064>069-076>088-106>120-190400-
SOUTHEAST KENTUCKY

CITY           SKY/WX    TMP DP  RH WIND       PRES   REMARKS
JACKSON        CLOUDY    40  36  86 N3        30.14R
LONDON         CLOUDY    39  36  89 CALM      30.13S
SOMERSET       PTCLDY    37  37 100 CALM      30.15S
MIDDLESBORO    CLOUDY    41  39  95 CALM      30.15R
MONTICELLO     CLOUDY    39  38  96 CALM      30.15F
$$




USA.gov is the U.S. government's official web portal to all federal, state and local government web resources and services.